BEIDOU-3 M11 1 43602U 18067A 21111.35605286 -.00000001 00000-0 00000-0 0 9990 2 43602 54.5013 245.1224 0006888 5.5409 354.5142 1.86231630 18067 BEIDOU-3 M12 1 43603U 18067B 21111.56020190 -.00000002 00000-0 00000+0 0 9999 2 43603 54.4991 245.0831 0004058 357.9029 49.4982 1.86231552 18081 YZ-1 R/B 1 43605U 18067D 21111.48188670 .00000005 00000-0 00000-0 0 9993 2 43605 54.2090 247.4659 0042202 18.2053 341.9148 1.78798346 17344